Starlink 4783

operational
NORAD ID: 53835 Int'l Des: 2022-114 Owner: SPXS Country: US Constellation: starlink
LEOCIRCULAR

关于 Starlink 4783

正在加载描述...

实时位置

正在加载3D地球...

即将过境

高度历史

Altitude vs Time

uPlot chart will show altitude changes over time

两行轨道根数

1 53835U 22114T 25258.28105323 -.00000679 00000-0 -24585-4 0 9992
2 53835 53.2194 11.3511 0001215 91.2064 268.9067 15.08835259166358
Epoch: Sep 15, 2025 • Age: 13 hours

当前状态

高度 541.8 km
速度 7.60 km/s
星下点 35.39°N, 110.8°E
发射日期 Sep 19, 2022
运行时间 2.9 years
类型 internet

技术详情

分类 Payload
质量 305.00 kg
干质量 290.00 kg
总质量 305.00 kg
长度 0.20 m
直径 2.80 m
跨度 9.00 m
形状 Box + pan
制造商 SPXS
平台类型 Starlink
阶段状态 In Orbit
所有者/国家 SPXS/US

大型星座

Loading constellations...